Roda de Ter - l'Esquerda





Hora UTC 12:55
Temperatura 10.3 ºC
Humitat 63.0 %
Pressió 1023.8 hPa
Pluja 0.0 mm
Velocitat vent 1.6 km/h
Direcció vent NNW

Dades diàries 2021-01-17



Hora UTC (hivern +1h; estiu +2h)
Temperatura (ºC) Humitat (%) Pressió (hPa) Velocitat vent (km/h) Precipitació (mm)
Hora UTC Aire Humitat Pressió Vel. Dir. Vel. Max Dir. Intent. màx 5 min.
00:05 -1.2 91.0 1027.4 1.6 ESE 1.6 0.0
00:10 -1.5 91.0 1027.4 1.6 ESE 3.2 0.0
00:15 -1.4 91.0 1027.1 0.0 ESE 4.8 0.0
00:20 -1.4 91.0 1027.2 1.6 ESE 4.8 0.0
00:25 -1.6 91.0 1027.2 3.2 ESE 3.2 0.0
00:30 -1.8 91.0 1027.1 1.6 ESE 3.2 0.0
00:35 -1.6 91.0 1026.9 1.6 ESE 3.2 0.0
00:40 -1.4 91.0 1026.9 3.2 N 4.8 0.0
00:45 -1.4 92.0 1026.8 1.6 N 4.8 0.0
00:50 -1.4 91.0 1026.8 3.2 N 4.8 0.0
00:55 -1.8 91.0 1026.8 3.2 N 3.2 0.0
01:00 -1.7 91.0 1026.8 1.6 N 3.2 0.0
01:05 -1.6 92.0 1026.8 0.0 N 3.2 0.0
01:10 -1.8 91.0 1026.7 0.0 N 1.6 0.0
01:15 -2.0 91.0 1026.6 0.0 N 1.6 0.0
01:20 -1.9 91.0 1026.7 1.6 N 3.2 0.0
01:25 -1.9 91.0 1026.5 4.8 NE 4.8 0.0
01:30 -1.9 91.0 1026.6 1.6 ESE 4.8 0.0
01:35 -2.2 92.0 1026.6 0.0 ESE 4.8 0.0
01:40 -2.3 91.0 1026.6 1.6 ESE 3.2 0.0
01:45 -2.3 91.0 1026.4 3.2 ESE 3.2 0.0
01:50 -2.2 92.0 1026.4 1.6 ESE 3.2 0.0
01:55 -2.2 92.0 1026.5 1.6 ESE 3.2 0.0
02:00 -2.4 92.0 1026.4 0.0 ESE 3.2 0.0
02:05 -2.3 92.0 1026.4 1.6 ESE 1.6 0.0
02:10 -2.3 92.0 1026.5 1.6 ESE 1.6 0.0
02:15 -2.3 92.0 1026.5 1.6 ESE 3.2 0.0
02:20 -2.3 92.0 1026.4 3.2 ESE 4.8 0.0
02:25 -2.3 92.0 1026.3 4.8 ESE 4.8 0.0
02:30 -2.3 92.0 1026.4 1.6 ESE 4.8 0.0
02:35 -2.2 92.0 1026.3 1.6 ESE 3.2 0.0
02:40 -2.3 92.0 1026.2 3.2 ESE 3.2 0.0
02:45 -2.3 92.0 1026.1 1.6 ESE 3.2 0.0
02:50 -2.6 92.0 1026.2 1.6 ESE 4.8 0.0
02:55 -2.8 91.0 1026.2 1.6 ESE 4.8 0.0
03:00 -2.7 92.0 1026.1 1.6 ESE 3.2 0.0
03:05 -2.4 92.0 1026.2 0.0 ESE 3.2 0.0
03:10 -2.3 92.0 1026.2 1.6 ESE 3.2 0.0
03:15 -2.6 92.0 1026.2 0.0 ESE 1.6 0.0
03:20 -2.7 92.0 1026.1 0.0 ESE 3.2 0.0
03:25 -2.8 92.0 1026.0 0.0 ESE 3.2 0.0
03:30 -2.8 92.0 1026.0 0.0 ESE 1.6 0.0
03:35 -2.8 92.0 1026.0 1.6 ESE 3.2 0.0
03:40 -2.9 92.0 1025.9 1.6 ESE 3.2 0.0
03:45 -2.9 92.0 1025.9 1.6 ESE 3.2 0.0
03:50 -3.1 92.0 1025.9 0.0 ESE 3.2 0.0
03:55 -3.0 92.0 1025.9 0.0 ESE 3.2 0.0
04:00 -2.9 92.0 1025.8 0.0 ESE 1.6 0.0
04:05 -2.8 92.0 1025.8 0.0 ESE 1.6 0.0
04:10 -3.1 92.0 1025.7 0.0 ESE 3.2 0.0
04:15 -3.2 92.0 1026.0 3.2 ESE 4.8 0.0
04:20 -3.2 92.0 1025.7 1.6 ESE 4.8 0.0
04:25 -3.1 92.0 1025.9 3.2 ESE 4.8 0.0
04:30 -3.3 92.0 1025.6 3.2 ESE 4.8 0.0
04:35 -3.3 92.0 1025.7 1.6 ESE 3.2 0.0
04:40 -3.3 92.0 1025.6 0.0 ESE 4.8 0.0
04:45 -3.4 92.0 1025.6 0.0 ESE 4.8 0.0
04:50 -3.4 92.0 1025.6 0.0 ESE 3.2 0.0
04:55 -3.4 92.0 1025.7 1.6 ESE 3.2 0.0
05:00 -3.4 92.0 1025.6 3.2 ESE 4.8 0.0
05:05 -3.4 92.0 1025.5 1.6 ESE 3.2 0.0
05:10 -3.5 92.0 1025.4 1.6 ESE 3.2 0.0
05:15 -3.4 92.0 1025.5 1.6 ESE 3.2 0.0
05:20 -3.5 92.0 1025.5 3.2 ESE 4.8 0.0
05:25 -3.5 92.0 1025.5 1.6 NE 4.8 0.0
05:30 -3.4 92.0 1025.5 1.6 NE 4.8 0.0
05:35 -3.4 92.0 1025.8 1.6 NE 4.8 0.0
05:40 -3.5 92.0 1025.5 1.6 NE 4.8 0.0
05:45 -3.7 92.0 1025.5 1.6 NE 4.8 0.0
05:50 -3.8 92.0 1025.6 0.0 NE 3.2 0.0
05:55 -3.7 92.0 1025.7 0.0 NE 3.2 0.0
06:00 -3.4 92.0 1025.6 0.0 NE 3.2 0.0
06:05 -3.5 92.0 1025.8 0.0 NE 3.2 0.0
06:10 -3.4 92.0 1025.7 1.6 NE 3.2 0.0
06:15 -3.5 92.0 1025.8 1.6 NE 3.2 0.0
06:20 -3.4 92.0 1025.8 1.6 NE 4.8 0.0
06:25 -3.4 92.0 1025.9 3.2 E 4.8 0.0
06:30 -3.4 92.0 1026.0 1.6 SW 4.8 0.0
06:35 -3.4 92.0 1025.8 3.2 SW 4.8 0.0
06:40 -3.4 92.0 1025.6 0.0 SW 3.2 0.0
06:45 -3.4 92.0 1025.8 0.0 SW 3.2 0.0
06:50 -3.3 92.0 1025.6 1.6 SW 3.2 0.0
06:55 -3.3 92.0 1026.0 3.2 W 4.8 0.0
07:00 -3.1 92.0 1025.8 1.6 N 4.8 0.0
07:05 -3.0 92.0 1025.9 1.6 N 4.8 0.0
07:10 -2.9 92.0 1025.9 0.0 N 3.2 0.0
07:15 -2.8 92.0 1025.8 1.6 N 3.2 0.0
07:20 -2.8 92.0 1025.7 3.2 N 3.2 0.0
07:25 -2.7 92.0 1025.7 0.0 N 4.8 0.0
07:30 -2.7 92.0 1025.6 6.4 S 4.8 0.0
07:35 -2.7 92.0 1025.7 1.6 SSW 6.4 0.0
07:40 -2.6 92.0 1025.8 0.0 ESE 4.8 0.0
07:45 -2.5 92.0 1025.5 3.2 SSE 8.0 0.0
07:50 -2.4 92.0 1025.9 3.2 WNW 8.0 0.0
07:55 -2.2 92.0 1025.7 1.6 WSW 4.8 0.0
08:00 -2.1 92.0 1025.8 3.2 NNW 4.8 0.0
08:05 -2.0 92.0 1025.8 1.6 NNW 4.8 0.0
08:10 -1.8 92.0 1026.1 1.6 NNW 3.2 0.0
08:15 -1.7 92.0 1025.8 0.0 NNW 3.2 0.0
08:20 -1.6 92.0 1026.1 0.0 NNW 4.8 0.0
08:25 -1.4 93.0 1026.1 0.0 NNW 4.8 0.0
08:30 -1.2 93.0 1026.0 1.6 SW 3.2 0.0
08:35 -1.2 92.0 1026.1 0.0 SW 3.2 0.0
08:40 -1.2 92.0 1026.0 0.0 SW 3.2 0.0
08:45 -0.9 93.0 1026.2 1.6 WSW 4.8 0.0
08:50 -0.9 93.0 1026.2 0.0 WSW 4.8 0.0
08:55 -0.8 92.0 1026.3 0.0 WSW 4.8 0.0
09:00 -0.9 92.0 1026.3 1.6 WSW 3.2 0.0
09:05 -0.7 93.0 1026.4 1.6 WSW 4.8 0.0
09:10 -0.6 93.0 1026.2 1.6 WSW 4.8 0.0
09:15 -0.4 93.0 1026.3 1.6 WSW 3.2 0.0
09:20 -0.5 93.0 1026.4 0.0 WSW 3.2 0.0
09:25 -0.4 93.0 1026.7 1.6 WSW 4.8 0.0
09:30 -0.3 93.0 1026.3 0.0 S 4.8 0.0
09:35 -0.1 93.0 1026.7 1.6 S 3.2 0.0
09:40 -0.2 93.0 1026.4 3.2 NW 4.8 0.0
09:45 0.1 93.0 1026.3 1.6 SW 4.8 0.0
09:50 0.2 93.0 1026.5 1.6 WSW 4.8 0.0
09:55 0.4 93.0 1026.5 1.6 WSW 4.8 0.0
10:00 0.6 93.0 1026.6 1.6 WSW 4.8 0.0
10:05 1.2 93.0 1026.4 3.2 SW 4.8 0.0
10:10 1.3 93.0 1026.6 6.4 NNW 6.4 0.0
10:15 1.2 92.0 1026.5 0.0 NNW 6.4 0.0
10:20 1.9 92.0 1026.2 1.6 S 4.8 0.0
10:25 2.1 92.0 1026.4 1.6 SW 4.8 0.0
10:30 2.1 91.0 1026.3 3.2 WSW 6.4 0.0
10:35 1.8 90.0 1026.1 1.6 WSW 6.4 0.0
10:40 1.7 89.0 1026.0 0.0 WSW 3.2 0.0
10:45 1.6 89.0 1025.9 0.0 WSW 3.2 0.0
10:50 1.7 89.0 1025.8 0.0 WSW 3.2 0.0
10:55 1.7 88.0 1025.7 0.0 WSW 3.2 0.0
11:00 1.6 88.0 1025.7 0.0 WSW 3.2 0.0
11:05 1.7 88.0 1025.6 0.0 WSW 3.2 0.0
11:10 1.9 88.0 1025.8 1.6 WSW 3.2 0.0
11:15 1.8 88.0 1025.6 1.6 WSW 3.2 0.0
11:20 2.0 88.0 1025.6 1.6 WSW 3.2 0.0
11:25 2.3 87.0 1025.5 0.0 WSW 3.2 0.0
11:30 3.3 88.0 1025.1 0.0 WSW 3.2 0.0
11:35 4.2 86.0 1024.9 1.6 WSW 3.2 0.0
11:40 4.7 84.0 1024.9 0.0 SSW 3.2 0.0
11:45 5.3 83.0 1024.8 0.0 SSW 3.2 0.0
11:50 5.6 81.0 1024.6 3.2 SSW 4.8 0.0
11:55 5.9 80.0 1024.5 3.2 W 6.4 0.0
12:00 6.4 79.0 1024.4 1.6 W 6.4 0.0
12:05 6.9 77.0 1024.4 1.6 W 4.8 0.0
12:10 7.8 73.0 1024.3 3.2 W 4.8 0.0
12:15 8.6 68.0 1024.2 1.6 WSW 4.8 0.0
12:20 8.8 69.0 1024.2 3.2 WSW 4.8 0.0
12:25 8.7 66.0 1024.1 3.2 NNW 4.8 0.0
12:30 9.5 66.0 1024.0 0.0 WNW 4.8 0.0
12:35 9.8 62.0 1024.0 1.6 WNW 4.8 0.0
12:40 10.3 61.0 1023.9 3.2 W 4.8 0.0
12:45 10.1 64.0 1023.8 3.2 W 4.8 0.0
12:50 10.1 65.0 1023.7 1.6 W 4.8 0.0
12:55 10.3 63.0 1023.8 1.6 NNW 4.8 0.0
Màxima 10.4 93.0 1027.4 6.4 NNW 8.0 0.0
Mínima -3.8 61.0 1023.7
Total 0.0